Location: Acres Farm
(34.8145°N, 90.2815°W)
Time: 19:08:59
(UTC+00:00)

BlueWalker 3 - Pass Details

Date: 07 October 2024
Orbit: 471 x 483 km, 53.2° (Epoch: 31 October)

Event Time Altitude Azimuth Distance (km) Brightness Sun altitude
Exits shadow 10:22:45 21° 349° (NNW) 1,092 3.6 -20.9°
Drops below altitude 10° 10:24:50 10° 20° (NNE) 1,632 4.9 -20.5°
Sets 10:27:18 0° 35° (NE) 2,512 6.1 -20.0°
